Date,TemperatureHighF,TemperatureAvgF,TemperatureLowF,DewpointHighF,DewpointAvgF,DewpointLowF,HumidityHigh,HumidityAvg,HumidityLow,PressureMaxIn,PressureMinIn,WindSpeedMaxMPH,WindSpeedAvgMPH,GustSpeedMaxMPH,PrecipitationSumIn
2013-1-1,29,22,16,16,10,3,70,62,51,29.99,29.89,10,1,10,0.00
2013-1-2,30,21,16,7,4,1,54,47,35,30.17,29.78,12,2,12,0.00
2013-1-3,36,23,15,6,0,-5,54,39,22,30.18,30.09,16,2,16,0.00
2013-1-4,44,32,23,12,4,-7,39,29,23,30.12,29.99,14,2,14,0.00
2013-1-5,40,32,24,15,10,4,49,40,31,30.23,29.99,15,4,15,0.00
2013-1-6,43,32,20,13,8,1,54,37,23,30.21,29.96,12,2,12,0.00
2013-1-7,48,41,30,13,8,5,37,25,18,30.02,29.86,10,2,10,0.00
2013-1-8,51,42,31,14,8,-4,41,26,15,30.21,29.83,19,3,19,0.00
2013-1-9,46,35,27,21,14,10,58,43,31,30.31,30.07,13,2,13,0.00
2013-1-10,43,35,24,19,14,10,61,44,31,30.07,29.59,14,1,14,0.00
2013-1-11,40,30,19,21,4,-9,61,35,20,29.76,29.40,30,5,30,0.00
2013-1-12,21,16,7,4,-4,-12,58,41,27,29.87,29.75,18,3,18,0.00
2013-1-13,20,11,5,7,0,-7,67,60,52,29.94,29.84,12,1,12,0.00
2013-1-14,20,12,5,10,3,-8,70,64,56,29.97,29.88,7,1,7,0.00
2013-1-15,30,19,4,16,5,-8,61,54,47,30.07,29.92,16,2,16,0.00
2013-1-16,46,36,26,22,17,11,56,47,36,30.30,30.06,10,2,10,0.02
2013-1-17,44,34,27,22,17,14,66,50,39,30.35,30.19,10,1,10,0.00
2013-1-18,52,41,34,16,6,1,48,24,15,30.19,30.07,12,3,12,0.00
2013-1-19,51,42,35,8,5,2,30,23,16,30.22,30.08,13,3,13,0.00
2013-1-20,47,40,28,12,4,-9,49,24,10,30.19,30.09,15,4,15,0.00
2013-1-21,49,37,23,15,10,1,59,35,20,30.17,30.07,13,2,13,0.00
2013-1-22,59,48,39,3,-4,-11,21,10,5,30.19,30.06,17,4,17,0.00
2013-1-23,62,51,44,5,-3,-10,14,9,6,30.20,30.13,12,2,12,0.00
2013-1-24,60,50,39,24,11,-5,37,21,11,30.17,29.99,20,3,20,0.00
2013-1-25,47,41,36,26,22,17,58,45,38,30.18,30.06,11,2,11,0.00
2013-1-26,52,44,37,30,25,21,56,47,34,30.06,29.79,8,2,8,0.00
2013-1-27,55,46,36,30,24,16,69,44,21,29.85,29.74,23,2,23,0.00
2013-1-28,51,39,30,27,22,17,76,53,27,29.80,29.60,24,4,24,0.00
2013-1-29,31,25,18,23,14,4,80,64,39,29.87,29.65,20,5,20,0.00
2013-1-30,35,26,14,16,10,3,74,52,38,29.89,29.79,16,3,16,0.00
2013-1-31,44,36,30,19,15,10,54,43,33,30.10,29.88,14,3,14,0.00
2013-2-1,47,37,31,16,14,10,51,39,23,30.15,29.99,21,4,21,0.00
2013-2-2,49,37,26,25,16,10,62,43,29,30.25,30.13,12,2,12,0.00
2013-2-3,50,39,30,21,14,7,57,38,23,30.21,29.91,8,1,8,0.00
2013-2-4,52,39,30,20,10,4,41,31,25,29.99,29.90,9,2,9,0.00
2013-2-5,50,41,31,16,14,10,43,34,25,30.06,29.92,13,3,13,0.00
2013-2-6,53,43,34,31,21,14,80,43,27,30.04,29.84,13,3,13,0.00
2013-2-7,43,34,27,28,23,18,78,65,52,30.13,30.03,12,3,12,0.04
2013-2-8,48,36,25,24,19,13,66,51,34,30.06,29.77,15,3,15,0.00
2013-2-9,37,31,25,23,20,15,79,63,51,29.78,29.55,20,5,20,0.00
2013-2-10,31,26,23,20,16,12,80,66,49,29.88,29.58,21,6,21,0.00
2013-2-11,36,24,20,29,15,10,78,68,62,29.96,29.89,8,2,8,0.00
2013-2-12,37,26,16,12,6,2,66,45,24,29.99,29.94,9,2,9,0.02
2013-2-13,43,34,25,17,11,3,47,39,29,29.99,29.92,13,3,13,0.00
2013-2-14,38,29,22,24,15,11,69,57,39,30.18,29.96,23,4,23,0.00
2013-2-15,36,26,17,17,13,8,70,59,38,30.20,30.12,21,3,21,0.00
2013-2-16,56,39,21,27,12,6,65,36,21,30.18,29.99,14,3,14,0.00
2013-2-17,55,44,29,16,3,-4,53,20,8,29.99,29.68,26,4,26,0.00
2013-2-18,39,30,24,18,10,-1,75,46,20,30.02,29.77,16,4,16,0.00
2013-2-19,38,29,20,16,10,2,63,45,37,30.02,29.78,12,2,12,0.00
2013-2-20,36,30,23,27,18,10,83,63,41,29.78,29.63,13,3,13,0.00
2013-2-21,23,20,17,18,14,9,80,75,69,29.83,29.63,21,7,21,0.00
2013-2-22,32,24,14,22,17,5,80,74,66,29.89,29.80,10,2,10,0.02
2013-2-23,40,31,22,24,14,4,70,49,37,29.84,29.65,18,4,18,0.03
2013-2-24,30,25,20,23,20,16,87,82,70,29.98,29.68,23,8,23,0.00
2013-2-25,36,26,17,16,13,9,84,61,39,29.99,29.82,16,3,19,0.00
2013-2-26,31,25,19,21,16,7,86,69,50,30.01,29.75,21,5,21,0.00
2013-2-27,34,25,18,18,13,7,87,62,44,30.13,30.01,14,3,14,0.00
2013-2-28,39,29,17,16,10,3,55,46,35,30.16,30.08,14,2,14,0.00
2013-3-1,44,34,25,21,17,12,62,49,38,30.25,30.13,17,2,17,0.00
2013-3-2,53,42,30,26,22,17,60,47,34,30.25,30.09,7,2,7,0.00
2013-3-3,57,46,38,24,21,18,51,38,23,30.09,29.76,20,4,20,0.00
2013-3-4,44,32,17,28,20,7,82,63,42,30.12,29.75,20,5,20,0.00
2013-3-5,38,26,13,27,17,4,81,68,58,30.18,30.08,11,2,11,0.01
2013-3-6,57,43,25,29,19,12,71,41,18,30.08,29.90,14,3,14,0.00
2013-3-7,60,50,41,22,16,12,45,27,17,30.00,29.91,12,3,12,0.00
2013-3-8,52,44,36,29,25,18,73,49,38,29.98,29.71,12,3,12,0.00
2013-3-9,37,30,24,29,25,15,89,81,69,30.00,29.64,27,11,27,0.00
2013-3-10,40,29,20,27,16,13,77,59,46,30.04,29.99,22,7,22,0.00
2013-3-11,53,40,33,27,20,14,76,46,31,30.07,29.92,13,4,13,0.00
2013-3-12,34,32,30,28,25,24,83,76,71,30.20,30.07,11,2,11,0.00
2013-3-13,59,46,30,27,24,21,76,45,27,30.25,30.15,14,2,14,0.00
2013-3-14,64,51,41,24,22,20,46,33,21,30.30,30.18,12,3,12,0.00
2013-3-15,68,57,46,26,20,12,37,25,12,30.20,29.96,15,4,15,0.00
2013-3-16,51,46,41,33,26,20,68,47,31,30.05,29.88,13,4,13,0.01
2013-3-17,58,40,32,34,24,11,73,54,22,29.91,29.64,18,4,18,0.01
2013-3-18,47,38,26,17,11,4,52,35,18,29.94,29.84,17,4,17,0.00
2013-3-19,49,40,34,14,10,4,40,30,22,30.23,29.91,13,4,13,0.00
2013-3-20,48,36,25,21,15,9,58,42,29,30.23,29.81,14,3,14,0.00
2013-3-21,56,45,36,30,24,17,67,44,23,29.85,29.62,19,4,19,0.00
2013-3-22,45,35,27,27,23,20,79,63,38,29.86,29.65,19,8,19,0.00
2013-3-23,27,18,13,21,13,6,83,78,72,30.06,29.81,22,8,22,0.00
2013-3-24,28,19,10,15,8,1,72,63,42,30.08,29.95,15,3,15,0.00
2013-3-25,21,13,8,12,4,-1,77,69,65,30.12,30.06,3,0,3,0.00
2013-3-27,52,46,40,29,27,25,62,49,37,30.12,30.03,10,4,10,0.00
2013-3-28,56,46,34,40,27,22,72,50,28,30.14,30.07,18,2,18,0.00
2013-3-29,60,50,38,32,26,22,62,42,24,30.15,30.07,19,2,19,0.00
2013-3-30,64,50,40,35,26,15,75,43,16,30.19,30.01,26,4,26,0.01
2013-3-31,66,48,34,34,27,18,79,50,19,30.17,29.98,12,3,12,0.00
2013-4-1,57,43,35,39,26,20,63,51,37,30.12,30.01,14,4,14,0.00
2013-4-2,40,37,35,33,29,26,81,73,63,30.08,30.02,7,2,7,0.01
2013-4-3,54,43,35,38,28,17,85,61,23,30.15,30.06,17,3,17,0.05
2013-4-4,64,50,38,32,24,20,60,39,21,30.16,30.06,10,2,10,0.00
2013-4-5,68,56,44,30,22,16,43,29,16,30.08,29.83,17,3,17,0.00
2013-4-6,60,51,40,30,25,21,52,38,25,29.99,29.89,16,3,16,0.00
2013-4-7,63,52,41,30,23,15,62,36,17,29.95,29.79,25,3,25,0.00
2013-4-8,64,48,28,32,24,20,80,43,21,29.82,29.54,32,6,32,0.00
2013-4-9,28,16,10,23,10,4,85,77,68,30.01,29.75,24,13,24,0.00
2013-4-10,29,19,7,19,10,1,89,66,58,29.99,29.88,20,5,20,0.00
2013-4-11,50,37,19,33,23,9,73,59,38,29.94,29.74,17,4,17,0.00
2013-4-12,53,42,34,33,29,20,74,62,28,30.00,29.90,15,2,15,0.00
2013-4-13,62,46,33,35,27,17,86,55,18,30.00,29.53,26,5,26,0.00
2013-4-14,52,45,37,33,22,11,78,43,21,29.81,29.53,28,6,28,0.07
2013-4-15,49,36,30,26,17,8,74,50,27,29.95,29.72,20,8,20,0.00
2013-4-16,44,33,27,28,24,21,83,70,52,29.95,29.78,20,7,20,0.02
2013-4-17,36,29,18,28,23,13,85,78,70,30.00,29.83,20,6,20,0.04
2013-4-18,33,24,15,19,14,8,82,66,49,30.09,29.97,15,5,15,0.00
2013-4-19,51,40,26,23,17,10,56,41,30,30.09,29.97,11,2,11,0.00
2013-4-20,53,45,36,33,25,19,70,46,32,30.04,29.91,13,2,13,0.00
2013-4-21,59,48,38,31,26,21,70,44,24,30.08,29.99,16,3,16,0.00
2013-4-22,54,37,23,34,24,17,79,61,33,30.15,29.94,24,6,24,0.00
2013-4-23,35,27,22,25,18,14,78,68,61,30.14,30.04,9,2,9,0.03
2013-4-24,51,37,22,24,19,12,77,51,31,30.20,30.08,11,2,11,0.00
2013-4-25,60,47,32,32,23,16,56,41,25,30.17,29.94,14,3,14,0.00
2013-4-26,60,52,43,26,20,15,43,30,18,30.26,30.03,18,5,18,0.00
2013-4-27,68,55,42,26,20,12,48,28,15,30.25,30.09,13,3,13,0.00
2013-4-28,72,60,47,29,20,15,35,23,13,30.13,29.96,27,2,27,0.00
2013-4-29,74,62,47,34,26,17,50,29,12,30.02,29.81,20,3,20,0.00
2013-4-30,68,56,42,38,29,18,64,37,20,30.01,29.80,22,5,22,0.00
2013-5-1,42,33,25,32,27,19,84,78,67,30.43,30.00,14,6,14,0.02
2013-5-2,52,34,24,29,19,15,79,56,36,30.49,30.33,11,2,11,0.03
2013-5-3,57,45,30,24,20,15,62,40,23,30.33,30.09,21,3,21,0.00
2013-5-4,60,48,36,28,24,21,60,41,27,30.20,30.08,10,2,10,0.00
2013-5-5,55,46,36,24,20,18,54,37,25,30.20,30.09,13,3,13,0.00
2013-5-6,66,52,40,36,27,19,50,39,28,30.14,29.98,12,2,12,0.00
2013-5-7,66,55,47,38,33,30,67,44,28,30.05,29.96,16,4,16,0.00
2013-5-8,53,46,42,42,37,34,83,70,61,30.09,30.01,16,4,16,0.06
2013-5-9,60,45,39,45,38,34,86,77,52,30.21,30.09,17,3,17,0.52
2013-5-10,59,49,38,42,35,30,81,61,34,30.30,30.17,28,3,28,0.02
2013-5-11,62,53,43,42,37,34,72,55,40,30.37,30.27,19,4,19,0.00
2013-5-12,72,60,46,37,33,30,59,39,25,30.27,30.20,14,3,14,0.00
2013-5-13,76,66,54,41,35,31,44,33,22,30.25,30.16,13,3,13,0.00
2013-5-14,74,64,58,44,37,33,54,37,23,30.16,30.05,20,4,20,0.01
2013-5-15,71,60,54,49,42,36,71,51,31,30.11,30.02,11,2,11,0.08
2013-5-16,75,63,49,45,37,29,71,44,22,30.04,29.93,14,2,14,0.00
2013-5-17,81,68,52,46,30,13,70,32,10,30.02,29.92,24,4,24,0.00
2013-5-18,72,63,54,36,24,15,49,24,15,30.01,29.88,19,3,19,0.00
2013-5-19,62,55,48,36,31,24,54,41,26,29.96,29.86,16,3,16,0.00
2013-5-20,61,51,44,46,37,27,74,60,38,30.08,29.92,15,2,15,0.15
2013-5-21,65,54,40,39,34,26,77,51,25,30.08,29.95,15,2,15,0.01
2013-5-22,74,58,42,41,36,31,67,45,24,30.11,29.97,20,3,20,0.00
2013-5-23,60,53,48,46,43,39,85,71,47,30.15,30.07,21,6,21,0.00
2013-5-24,82,65,51,52,38,18,91,51,10,30.11,30.00,27,5,27,0.00
2013-5-25,84,69,52,45,29,17,63,28,7,30.09,29.98,23,3,23,0.00
2013-5-26,82,70,59,40,25,15,42,21,10,30.06,29.94,16,3,16,0.00
2013-5-27,78,67,58,42,25,15,50,23,10,30.00,29.88,14,3,22,0.00
2013-5-28,77,64,51,50,36,25,68,37,21,29.94,29.74,19,4,19,0.00
2013-5-29,64,57,51,48,40,24,75,55,23,29.85,29.72,18,6,18,0.04
2013-5-30,68,58,49,33,24,12,46,29,15,29.96,29.81,23,6,23,0.00
2013-5-31,67,59,50,28,18,9,43,23,12,30.09,29.94,21,6,21,0.00
2013-6-1,66,57,44,36,30,16,57,37,21,30.24,30.08,24,4,24,0.00
2013-6-2,79,62,47,40,34,27,61,37,17,30.24,29.99,14,4,14,0.00
2013-6-3,85,71,53,34,27,20,41,23,8,30.04,29.89,28,4,28,0.00
2013-6-4,74,63,52,53,39,20,83,44,21,30.20,30.03,30,5,30,0.05
2013-6-5,57,51,46,47,44,41,88,77,64,30.22,30.15,19,4,20,0.00
2013-6-6,74,62,48,48,44,38,82,56,30,30.19,30.11,15,2,15,0.00
2013-6-7,76,66,53,46,41,36,61,42,29,30.18,29.99,15,3,15,0.00
2013-6-8,73,66,54,47,40,36,51,39,29,30.12,29.94,22,5,22,0.00
2013-6-9,86,70,52,43,35,30,55,32,16,30.14,30.08,14,3,14,0.00
2013-6-10,90,75,57,38,32,24,41,23,11,30.12,30.02,24,3,24,0.00
2013-6-11,92,80,67,34,27,17,26,14,3,30.12,29.96,27,5,27,0.00
2013-6-12,87,75,61,35,27,20,30,18,11,30.23,30.12,22,5,22,0.00
2013-6-13,77,67,60,50,42,34,55,42,25,30.20,30.16,12,2,12,0.00
2013-6-16,70,66,61,51,43,37,56,42,35,30.26,30.15,22,5,22,0.01
2013-6-17,72,62,53,51,43,37,67,50,34,30.26,30.17,22,3,22,0.09
2013-6-18,80,64,52,53,47,40,77,56,28,30.22,30.03,21,4,21,0.01
2013-6-19,86,70,56,55,45,21,79,49,13,30.12,29.89,20,5,20,0.00
2013-6-20,88,74,60,41,28,20,37,20,6,30.04,29.95,20,4,20,0.00
2013-6-21,90,75,57,42,29,20,52,22,7,30.04,29.94,38,3,38,0.00
2013-6-22,86,73,58,46,35,22,59,30,10,30.06,29.92,19,4,19,0.00
2013-6-23,83,70,57,45,42,37,63,38,21,30.12,29.97,21,5,21,0.00
2013-6-24,86,72,56,51,35,18,64,34,10,30.06,29.92,22,4,22,0.00
2013-6-25,89,76,63,34,26,17,26,17,11,30.16,29.96,21,4,21,0.00
2013-6-26,92,77,60,48,38,32,46,26,15,30.22,30.15,15,3,15,1.58
2013-6-27,91,80,65,44,38,29,42,24,12,30.37,30.22,17,4,17,0.00
2013-6-28,89,77,66,55,49,37,65,40,18,30.40,30.23,19,4,19,0.12
2013-6-29,80,70,61,55,50,41,73,51,27,30.42,30.22,17,3,17,0.04
2013-6-30,77,67,61,58,52,44,70,59,43,30.30,30.22,13,3,13,0.41
2013-7-1,73,63,54,57,52,47,83,68,50,30.34,30.28,12,2,12,0.15
2013-7-2,77,66,54,54,48,38,82,54,25,30.34,30.22,17,3,17,0.00
2013-7-3,83,69,55,48,42,34,65,41,18,30.24,30.05,16,3,16,0.00
2013-7-4,85,72,60,46,42,37,51,35,19,30.13,30.05,13,4,13,0.00
2013-7-5,84,72,65,57,49,41,61,46,26,30.08,29.99,13,2,13,0.18
2013-7-6,82,70,64,59,50,44,71,51,28,30.16,30.03,18,3,18,0.18
2013-7-7,83,69,60,59,53,48,68,58,30,30.22,30.11,12,2,12,0.28
2013-7-8,88,76,63,54,48,42,69,41,22,30.23,30.15,14,3,14,0.00
2013-7-9,87,79,65,48,44,41,46,30,23,30.30,30.23,15,3,15,0.00
2013-7-10,82,72,65,59,51,42,69,48,33,30.30,30.18,13,3,13,0.18
2013-7-11,86,72,59,61,55,52,82,58,35,30.27,30.07,14,4,14,0.00
2013-7-12,85,75,68,60,51,46,56,44,31,30.18,30.08,17,4,18,0.03
2013-7-13,85,72,64,61,55,53,71,57,37,30.25,30.15,16,3,16,0.03
2013-7-14,77,68,60,58,54,50,77,61,46,30.29,30.20,18,5,18,0.31
2013-7-15,71,64,59,58,55,46,89,74,52,30.28,30.22,16,3,16,0.06
2013-7-16,76,64,54,55,50,46,79,60,39,30.34,30.22,20,5,20,0.00
2013-7-17,80,69,59,56,52,47,81,59,31,30.34,30.24,18,6,18,0.00
2013-7-18,86,72,58,55,50,46,74,49,28,30.28,30.16,17,4,17,0.00
2013-7-19,77,69,60,56,52,48,70,55,41,30.27,30.19,17,4,17,0.00
2013-7-20,83,72,62,66,55,45,78,58,31,30.22,30.07,17,4,17,0.04
2013-7-21,87,74,60,53,46,32,70,42,16,30.14,30.07,12,2,16,0.00
2013-7-22,89,77,65,44,39,27,43,27,12,30.15,30.07,21,3,21,0.00
2013-7-23,90,78,65,51,37,22,41,26,10,30.25,30.12,13,3,15,0.00
2013-7-24,76,66,60,63,57,50,86,72,41,30.34,30.21,16,4,16,0.53
2013-7-25,76,65,57,55,51,48,80,62,38,30.32,30.15,22,5,22,0.00
2013-7-26,82,68,56,54,49,46,73,53,34,30.34,30.26,15,3,15,0.00
2013-7-27,80,69,59,57,50,42,74,52,26,30.29,30.11,13,3,13,0.02
2013-7-28,68,62,59,60,56,53,86,80,70,30.17,30.07,11,3,11,0.23
2013-7-29,73,65,60,59,55,52,86,72,49,30.28,30.07,13,2,13,0.77
2013-7-30,80,68,55,54,50,46,79,56,34,30.34,30.25,11,2,12,0.01
2013-7-31,83,71,60,56,50,46,65,49,33,30.36,30.25,12,3,12,0.00
2013-8-1,82,70,62,62,54,46,77,58,40,30.33,30.12,14,3,14,0.03
2013-8-2,86,74,65,54,47,41,52,40,23,30.22,30.08,21,4,24,0.00
2013-8-3,77,68,61,58,54,49,78,61,49,30.36,30.18,11,3,12,0.02
2013-8-4,84,68,59,61,54,45,78,63,30,30.30,30.19,13,3,13,0.00
2013-8-5,81,70,61,54,49,40,74,49,24,30.25,30.15,11,4,16,0.01
2013-8-6,82,71,63,50,45,39,57,42,23,30.18,30.11,10,4,13,0.00
2013-8-7,68,64,61,56,54,51,79,72,62,30.21,30.13,8,2,8,0.14
2013-8-8,71,63,56,56,52,46,83,69,53,30.24,30.12,17,3,17,0.00
2013-8-9,72,61,53,54,50,44,79,68,48,30.30,30.22,17,2,17,0.00
2013-8-10,78,61,52,57,49,45,87,67,38,30.30,30.21,19,2,19,0.00
2013-8-11,76,66,59,54,48,42,67,52,36,30.27,30.21,13,3,13,0.00
2013-8-12,76,66,57,52,49,45,72,57,41,30.30,30.22,16,3,16,0.00
2013-8-13,71,64,56,55,50,45,75,61,43,30.30,30.22,14,2,14,0.00
2013-8-14,77,66,56,55,50,44,70,58,34,30.29,30.20,13,2,13,0.00
2013-8-15,80,69,55,48,44,36,69,43,25,30.27,30.18,16,3,16,0.00
2013-8-16,85,72,59,48,43,34,58,38,19,30.27,30.22,18,2,18,0.00
2013-8-17,86,73,60,54,45,36,55,38,21,30.27,30.17,14,3,14,0.00
2013-8-18,84,73,62,54,48,39,70,43,23,30.27,30.18,19,2,19,0.00
2013-8-19,85,73,63,58,48,43,58,42,28,30.27,30.18,16,2,16,0.00
2013-8-20,87,76,65,50,45,41,52,35,21,30.22,30.13,14,3,14,0.00
2013-8-21,85,73,66,52,45,38,50,37,23,30.24,30.16,15,3,15,0.00
2013-8-22,82,68,60,58,52,46,79,58,37,30.34,30.19,13,3,13,0.00
2013-8-23,80,73,60,62,54,48,82,54,35,30.20,30.10,10,3,10,0.00
2013-8-24,82,71,60,55,49,42,62,47,34,30.21,30.12,12,2,12,0.00
2013-8-25,83,72,63,58,51,47,61,49,35,30.25,30.20,11,2,11,0.00
2013-8-26,85,75,66,55,51,48,55,44,31,30.26,30.19,10,2,10,0.00
2013-8-27,86,74,63,56,53,50,66,49,32,30.25,30.17,9,2,9,0.00
2013-8-28,86,74,62,54,48,44,65,42,26,30.25,30.18,8,2,8,0.00
2013-8-29,87,74,63,52,47,43,56,39,23,30.29,30.23,10,2,10,0.00
2013-8-30,84,73,67,57,50,46,60,45,28,30.29,30.22,14,2,14,0.00
2013-8-31,82,71,65,58,51,47,65,50,30,30.23,30.16,8,2,12,0.00
2013-9-1,74,66,62,60,55,49,76,67,54,30.27,30.20,12,4,15,0.00
2013-9-2,80,68,58,62,56,52,84,66,44,30.26,30.18,10,2,10,0.00
2013-9-3,85,74,64,55,52,49,68,48,30,30.25,30.18,10,2,10,0.00
2013-9-4,83,74,68,55,52,48,56,45,35,30.32,30.23,8,2,8,0.00
2013-9-5,87,75,64,53,48,42,55,39,23,30.31,30.24,9,2,9,0.00
2013-9-6,86,75,64,48,43,40,45,33,21,30.27,30.19,8,2,8,0.00
2013-9-7,85,73,61,51,45,39,58,38,22,30.25,30.15,9,2,9,0.00
2013-9-8,84,73,60,49,44,38,50,36,21,30.18,30.02,9,2,9,0.00
2013-9-9,81,68,60,54,49,41,77,53,30,30.15,29.99,18,4,18,0.00
2013-9-10,71,64,60,58,54,52,83,71,54,30.24,30.12,13,2,13,0.00
2013-9-11,67,62,59,58,56,55,87,80,69,30.26,30.21,10,2,10,0.00
2013-9-12,65,61,58,60,56,54,88,84,79,30.30,30.21,12,2,12,0.00
2013-9-13,66,61,58,59,56,54,92,85,73,30.22,30.04,11,3,11,0.00
2013-9-14,72,62,54,58,53,48,86,74,56,30.09,30.01,13,2,13,0.00
2013-9-15,61,57,55,55,52,48,87,83,73,30.29,30.09,11,3,11,0.00
2013-9-16,60,57,53,56,53,50,92,87,81,30.28,30.17,8,2,8,0.00
2013-9-17,77,66,56,55,49,40,88,56,34,30.19,30.00,8,2,8,0.00
2013-9-18,77,66,58,49,46,42,64,49,32,30.06,29.96,16,3,16,0.00
2013-9-19,63,58,53,48,43,32,67,56,42,30.22,30.02,13,3,13,0.00
2013-9-20,67,59,52,51,48,44,82,68,56,30.22,30.12,9,2,9,0.00
2013-9-21,76,63,50,46,43,40,77,52,32,30.15,29.97,8,2,8,0.00
2013-9-22,72,62,54,49,44,40,77,54,34,29.98,29.75,14,2,14,0.00
2013-9-23,62,54,46,48,38,30,85,57,32,30.13,29.68,14,5,14,0.00
2013-9-24,68,57,47,38,32,27,54,39,29,30.19,30.01,9,3,9,0.00
2013-9-25,75,63,49,37,32,27,58,34,19,30.01,29.73,21,4,21,0.00
2013-9-26,73,64,54,43,34,24,58,34,22,29.87,29.76,19,4,19,0.00
2013-9-27,60,54,52,47,37,32,73,51,41,29.86,29.83,9,2,9,0.00
2013-9-30,77,69,56,43,38,30,48,32,26,30.03,29.91,8,3,10,0.00
2013-10-1,70,62,53,39,34,27,48,36,29,30.13,30.02,15,3,15,0.00
2013-10-2,71,61,52,41,36,32,59,41,28,30.07,29.98,9,2,9,0.00
2013-10-3,70,58,51,45,37,28,78,48,24,29.98,29.81,13,4,13,0.00
2013-10-4,51,39,32,45,32,20,83,75,57,30.15,29.81,23,8,23,0.00
2013-10-5,54,42,32,25,17,10,60,39,18,30.20,30.11,16,4,16,0.00
2013-10-6,65,51,40,33,21,10,43,31,27,30.27,30.19,9,2,9,0.00
2013-10-7,70,55,40,32,27,22,53,36,19,30.26,30.05,10,2,10,0.00
2013-10-8,72,63,53,29,25,19,37,24,17,30.06,29.87,19,2,19,0.00
2013-10-9,69,58,49,40,32,26,67,39,25,30.02,29.92,15,4,15,0.00
2013-10-10,61,51,44,42,36,24,76,59,38,30.01,29.67,21,4,21,0.00
2013-10-11,58,52,46,28,26,23,42,37,31,29.89,29.65,17,6,17,0.00
2013-10-12,47,45,44,33,32,32,63,61,59,30.17,30.15,8,3,8,0.00
2013-10-13,61,48,36,47,37,28,80,66,48,30.17,29.98,14,3,14,0.00
2013-10-14,57,48,38,43,35,24,86,64,29,30.13,29.89,15,5,17,0.00
2013-10-15,42,36,32,29,25,21,73,63,56,30.22,30.13,14,4,14,0.00
2013-10-16,50,41,34,30,26,21,80,58,36,30.16,30.00,11,2,11,0.00
2013-10-17,53,43,35,30,25,18,63,50,37,30.09,29.99,11,2,11,0.00
2013-10-18,42,36,31,30,27,24,83,69,58,30.14,30.01,11,2,11,0.00
2013-10-19,57,44,32,30,24,17,70,46,31,30.12,29.97,9,2,9,0.00
2013-10-20,49,44,35,34,26,18,81,53,32,30.12,29.95,13,3,13,0.00
2013-10-21,52,41,31,30,26,23,79,59,37,30.19,30.10,10,1,10,0.00
2013-10-22,59,49,40,31,27,23,57,43,33,30.21,30.16,12,2,12,0.00
2013-10-23,63,50,42,31,27,24,52,42,26,30.22,30.14,8,2,8,0.00
2013-10-24,55,46,38,36,30,25,70,54,45,30.25,30.19,10,2,10,0.00
2013-10-25,63,50,35,32,28,24,71,46,25,30.23,30.12,13,2,13,0.00
2013-10-26,58,49,41,33,31,28,68,51,38,30.31,30.18,13,3,13,0.00
2013-10-27,63,53,41,28,24,20,58,33,22,30.18,29.93,14,3,14,0.00
2013-10-28,50,43,36,34,28,21,76,58,34,30.01,29.93,19,4,19,0.00
2013-10-29,52,41,33,35,30,27,80,68,47,29.99,29.88,11,2,11,0.00
2013-10-30,52,41,36,35,28,21,84,62,30,29.91,29.80,15,3,15,0.00
2013-10-31,53,42,34,27,18,14,69,39,22,29.94,29.83,15,4,15,0.00
2013-11-1,46,42,40,28,23,18,54,47,37,30.12,29.93,17,5,17,0.00
2013-11-5,36,32,26,21,14,8,65,46,40,30.11,29.96,19,3,19,0.00
2013-11-6,48,37,24,16,12,6,54,36,25,30.30,30.09,12,3,12,0.00
2013-11-7,51,40,29,22,17,11,59,40,31,30.33,30.07,8,2,8,0.00
2013-11-8,64,51,35,20,16,9,47,27,12,30.08,29.90,17,3,17,0.00
2013-11-9,55,46,40,33,22,16,50,38,31,30.24,30.07,9,2,9,0.00
2013-11-10,59,46,35,29,24,18,63,43,21,30.23,30.17,8,1,8,0.00
2013-11-11,60,45,34,29,22,17,70,42,21,30.48,30.21,19,3,19,0.00
2013-11-12,52,40,31,30,26,21,73,58,41,30.51,30.34,8,2,8,0.00
2013-11-13,61,49,33,22,13,6,62,25,13,30.34,30.04,10,2,10,0.00
2013-11-14,46,46,46,11,11,11,24,24,24,30.05,30.04,3,1,3,0.00
2013-11-15,55,50,44,26,20,15,44,31,21,29.73,29.60,23,3,23,0.00
2013-11-16,52,45,39,28,21,15,63,39,24,29.63,29.47,31,5,31,0.00
2013-11-17,49,40,34,24,19,16,55,44,31,30.10,29.63,13,3,18,0.00
2013-11-18,52,40,29,19,13,9,47,34,23,30.14,30.05,9,2,9,0.00
2013-11-19,56,46,35,21,16,11,41,30,23,30.05,29.80,14,2,14,0.00
2013-11-20,53,46,40,29,23,20,56,39,32,29.94,29.83,9,2,9,0.00
2013-11-21,44,20,12,31,13,6,89,73,57,30.35,29.94,21,8,21,0.00
2013-11-22,34,27,16,28,19,9,81,71,62,30.40,30.31,15,2,15,0.00
2013-11-23,36,28,24,26,16,8,79,61,47,30.43,30.23,16,3,16,0.00
2013-11-24,34,28,23,29,22,18,85,77,53,30.23,29.92,22,4,22,0.00
2013-11-25,37,33,28,26,21,16,78,61,48,30.22,29.94,29,6,29,0.00
2013-11-26,44,36,30,22,20,17,66,52,38,30.31,30.21,17,2,17,0.00
2013-11-27,51,39,28,29,19,15,60,46,32,30.21,30.07,8,1,8,0.00
2013-11-28,43,37,31,27,22,18,74,55,45,30.19,30.11,10,2,10,0.00
2013-11-29,53,44,29,24,17,14,77,37,24,30.16,30.07,22,4,22,0.00
2013-11-30,52,44,38,16,12,9,36,28,21,30.17,30.09,12,3,12,0.00
2013-12-1,53,45,38,23,14,9,38,29,22,30.12,29.92,15,4,15,0.00
2013-12-2,54,48,43,22,20,18,42,33,25,29.94,29.68,27,4,27,0.00
2013-12-3,52,39,16,26,18,8,74,46,32,29.69,29.56,20,6,20,0.00
2013-12-4,16,9,4,8,0,-7,73,68,62,29.89,29.62,14,6,15,0.00
2013-12-5,10,5,1,4,-3,-9,74,69,62,29.93,29.80,10,2,10,0.00
2013-12-6,10,4,-2,1,-5,-14,73,66,59,30.03,29.90,10,2,10,0.00
2013-12-7,14,7,5,8,-1,-4,77,69,65,30.02,29.65,12,2,12,0.00
2013-12-8,25,15,6,14,7,-2,80,69,59,29.90,29.57,23,2,23,0.00
2013-12-9,24,16,6,12,1,-4,72,55,31,30.03,29.89,15,2,15,0.00
2013-12-10,42,32,20,25,8,-2,61,37,30,30.13,29.90,14,3,21,0.00
2013-12-11,33,25,17,22,12,7,71,60,35,30.26,30.13,7,2,7,0.00
2013-12-12,52,41,31,19,9,3,35,27,21,30.23,29.94,10,2,10,0.00
2013-12-13,46,38,30,17,10,3,53,33,22,30.08,29.84,15,4,15,0.00
2013-12-14,41,32,24,19,14,11,62,49,39,30.21,30.08,8,1,8,0.00
2013-12-15,50,42,33,23,17,10,49,37,23,30.16,30.10,12,3,12,0.00
2013-12-16,56,48,41,21,15,10,35,27,18,30.23,30.11,17,3,17,0.00
2013-12-17,51,43,35,20,15,10,43,32,22,30.29,30.11,10,2,10,0.00
2013-12-18,59,52,46,17,12,10,24,21,15,30.11,29.81,13,2,13,0.00
2013-12-19,54,42,26,23,19,12,77,42,22,29.81,29.63,25,4,25,0.00
2013-12-20,30,26,23,22,20,15,81,76,70,29.80,29.64,9,1,9,0.00
2013-12-21,35,26,18,23,17,11,78,69,51,29.83,29.56,13,3,13,0.00
2013-12-22,35,26,16,21,14,6,80,60,39,30.08,29.83,15,2,15,0.00
2013-12-23,39,27,20,27,17,10,79,67,46,30.20,30.07,12,2,12,0.00
2013-12-24,50,38,26,24,20,10,70,49,23,30.21,29.99,22,4,22,0.00
2013-12-25,38,30,21,10,7,3,51,39,28,30.30,30.17,10,2,10,0.00
2013-12-26,48,39,32,19,10,4,39,30,24,30.25,30.15,13,2,13,0.00
2013-12-27,53,40,28,21,15,8,46,36,25,30.24,30.06,7,1,7,0.00
2013-12-28,53,39,23,24,18,12,79,45,25,30.08,29.88,19,5,19,0.00
2013-12-29,33,24,18,21,16,11,78,72,43,30.12,29.91,16,3,16,0.00
2013-12-30,44,35,28,24,16,12,53,46,38,30.15,29.93,12,2,12,0.00
2013-12-31,51,41,27,25,18,13,56,40,29,30.09,29.95,13,2,13,0.00
2014-1-1,38,33,24,26,21,15,79,61,48,30.20,29.90,20,5,20,0.00
2014-1-2,43,31,20,21,17,12,77,57,35,30.18,30.02,11,2,13,0.00